[[[{"header":{"parameterUnit":"kt","parameterCategory":2,"dx":1,"dy":1,"la1":30.253999710083008,"la2":30.299108505249023,"lo1":-89.0895004272461,"lo2":-89.04439544677734,"nx":28,"ny":28,"refTime":"2022-10-09T21:00:00:Z","depth":0,"parameterNumber":1,"parameterNumberName":"U-component_of_WINDS"},"data":[-5.4497,-5.4625,-5.4615,-5.4756,-5.477,-5.4866,-5.4897,-5.4935,-5.4963,-5.5075,-5.5138,-5.514,-5.5165,-5.5238,-5.5306,-5.5305,-5.5337,-5.539,-5.5382,-5.515,-5.5118,-5.5087,-5.5057,-5.5396,-5.5397,-5.5625,-5.5627,-5.5628,-5.4331,-5.4346,-5.4417,-5.4479,-5.454,-5.4482,-5.4526,-5.4582,-5.4668,-5.4703,-5.4764,-5.4862,-5.4938,-5.4944,-5.5016,-5.5077,-5.5055,-5.5097,-5.5095,-5.5101,-5.4851,-5.482,-5.5114,-5.5114,-5.5114,-5.5114,-5.5114,-5.5114,-5.4025,-5.4102,-5.4133,-5.4209,-5.4237,-5.4278,-5.435,-5.435,-5.442,-5.4492,-5.4465,-5.4563,-5.4596,-5.4676,-5.4701,-5.4777,-5.4729,-5.4772,-5.4785,-5.4797,-5.4814,-5.4493,-5.4788,-5.4787,-5.4787,-5.4786,-5.4785,0,-5.3799,-5.3785,-5.3851,-5.3916,-5.3971,-5.4019,-5.4061,-5.4105,-5.407,-5.4129,-5.4213,-5.426,-5.4353,-5.4432,-5.4496,-5.4512,-5.4461,-5.4453,-5.4484,-5.4502,-5.451,-5.4512,-5.4111,-5.4445,-5.4442,-5.444,-5.4439,-5.4437,-5.3494,-5.3583,-5.3609,-5.3658,-5.3678,-5.3756,-5.3801,-5.3763,-5.3812,-5.3859,-5.3929,-5.4006,-5.4066,-5.4204,-5.4204,-5.4274,-5.425,-5.438,-5.4261,-5.4273,-5.4258,-5.4255,-5.4266,-5.4406,-5.441,-5.4413,-5.4416,0,-5.3325,-5.3305,-5.3439,-5.3455,-5.3462,-5.3558,-5.3572,-5.3647,-5.3638,-5.374,-5.3762,-5.375,-5.3833,-5.3812,-5.3903,-5.389,-5.4051,-5.4024,-5.4041,-5.4036,-5.4153,-5.4144,-5.4529,-5.4579,-5.4221,-5.4225,-5.4228,0,-5.3059,-5.3177,-5.3141,-5.3221,-5.3351,-5.3309,-5.344,-5.3445,-5.3471,-5.3551,-5.3486,-5.3563,-5.3523,-5.3597,-5.3577,-5.3704,-5.372,-5.3719,-5.3714,-5.3728,-5.3729,-5.3758,-5.3744,-5.3691,-5.3689,-5.3688,-5.3686,0,-5.2799,-5.2916,-5.3044,-5.3068,-5.3097,-5.3158,-5.3173,-5.3201,-5.3245,-5.3298,-5.3327,-5.3392,-5.3429,-5.348,-5.3455,-5.3376,-5.3609,-5.3494,-5.3609,-5.361,-5.3665,-5.3663,-5.4005,-5.3684,-5.3683,-5.3682,-5.3682,0,-5.2583,-5.2636,-5.2822,-5.2845,-5.2878,-5.2961,-5.3023,-5.3088,-5.3123,-5.3116,-5.3157,-5.3113,-5.3219,-5.3108,-5.3255,-5.3159,-5.3199,-5.3206,-5.3214,-5.3227,-5.3104,-5.3305,-5.3628,-5.3664,-5.3233,-5.3229,-5.3226,0,-5.2293,-5.2475,-5.244,-5.2618,-5.2699,-5.2622,-5.2713,-5.2745,-5.2743,-5.2812,-5.2809,-5.2889,-5.28,-5.2822,-5.2897,-5.2899,-5.3023,-5.288,-5.2987,-5.2991,-5.2984,-5.328,-5.3336,-5.3559,-5.3177,-5.3182,-5.3186,0,-5.2067,-5.2099,-5.2133,-5.2159,-5.2194,-5.2261,-5.2365,-5.2434,-5.2483,-5.2524,-5.2613,-5.2721,-5.2661,-5.2698,-5.2668,-5.2748,-5.2938,-5.2672,-5.2672,-5.2724,-5.3149,-5.3203,-5.324,-5.2901,-5.2906,-5.2911,-5.3148,0,-5.1753,-5.1839,-5.1928,-5.1987,-5.2034,-5.2142,-5.2118,-5.2171,-5.2138,-5.2133,-5.2261,-5.2281,-5.2353,-5.2387,-5.2355,-5.2542,-5.2509,-5.2442,-5.2336,-5.2528,-5.2606,-5.2638,-5.2222,-5.2218,-5.2216,-5.2213,0,0,-5.1483,-5.1606,-5.1565,-5.1664,-5.1702,-5.162,-5.1739,-5.1766,-5.1824,-5.1853,-5.1792,-5.1949,-5.1969,-5.2128,-5.2185,-5.2213,-5.2246,-5.2179,-5.2436,-5.2461,-5.2484,-5.2567,-5.26,-5.2208,-5.2207,-5.2206,-5.2206,0,-5.1364,-5.1382,-5.1499,-5.1525,-5.1562,-5.155,-5.1578,-5.16,-5.1603,-5.1726,-5.1659,-5.1732,-5.1858,-5.1889,-5.1922,-5.2158,-5.2105,-5.218,-5.2317,-5.2408,-5.2437,-5.2462,-5.255,-5.2582,-5.2199,-5.2199,-5.2199,0,-5.114,-5.1155,-5.1208,-5.1288,-5.1311,-5.1396,-5.1277,-5.137,-5.1433,-5.134,-5.1465,-5.1473,-5.1512,-5.1663,-5.173,-5.1677,-5.1979,-5.1877,-5.1894,-5.1903,-5.199,-5.2024,-5.2055,-5.1653,-5.1651,-5.165,0,0,-5.1041,-5.112,-5.1125,-5.126,-5.128,-5.1264,-5.1305,-5.1277,-5.1311,-5.1326,-5.1336,-5.1373,-5.1446,-5.1495,-5.1562,-5.1731,-5.1738,-5.1811,-5.1837,-5.1858,-5.1878,-5.1971,-5.2005,-5.1643,-5.1643,-5.1642,0,0,-5.0994,-5.1005,-5.0964,-5.1118,-5.1153,-5.1168,-5.1253,-5.1204,-5.1261,-5.1247,-5.1203,-5.1211,-5.1351,-5.1363,-5.1274,-5.1525,-5.1419,-5.1439,-5.1513,-5.1545,-5.157,-5.1567,-5.1157,0,0,0,0,0,-5.086,-5.1003,-5.0966,-5.0988,-5.1089,-5.1188,-5.1201,-5.1168,-5.1094,-5.1162,-5.1162,-5.1101,-5.1306,-5.1227,-5.125,-5.135,-5.1555,-5.1571,-5.1585,-5.172,-5.1754,-5.1782,0,0,0,0,0,0,-5.0868,-5.0895,-5.0962,-5.0984,-5.1006,-5.1183,-5.1051,-5.1045,-5.1086,-5.1072,-5.1103,-5.1102,-5.1076,-5.1213,-5.1234,-5.133,-5.115,-5.1561,-5.1575,-5.1586,-5.1731,-5.1759,-5.1783,0,0,0,0,0,-5.0875,-5.0896,-5.1066,-5.0981,-5.1001,-5.099,-5.1045,-5.104,-5.107,-5.1071,-5.1068,-5.1041,-5.1079,-5.1095,-5.1225,-5.1321,-5.1135,-5.1143,-5.157,-5.158,-5.159,-5.1745,0,0,0,0,0,0,-5.088,-5.0893,-5.107,-5.1074,-5.0925,-5.098,-5.0987,-5.1035,-5.1066,-5.1065,-5.1007,-5.0996,-5.1084,-5.1095,-5.1108,-5.132,-5.1122,-5.1131,-5.1136,-5.1578,-5.1586,-5.1593,0,0,0,0,0,0,-5.0881,-5.0898,-5.1072,-5.1002,-5.0998,-5.097,-5.0977,-5.1082,-5.1067,-5.1,-5.0991,-5.1002,-5.1065,-5.1096,-5.1105,-5.1271,-5.1113,-5.1121,-5.1126,-5.113,-5.1584,-5.1591,0,0,0,0,0,0,-5.0887,-5.0901,-5.1001,-5.0998,-5.0994,-5.1045,-5.1063,-5.1168,-5.1006,-5.1,-5.0991,-5.0984,-5.1068,-5.1077,-5.1104,-5.1266,-5.127,-5.1113,-5.1119,-5.1123,-5.1125,0,0,0,0,0,0,0,-5.0892,-5.0805,-5.1042,-5.0995,-5.0991,-5.1118,-5.1119,-5.112,-5.1005,-5.0999,-5.0993,-5.0987,-5.1068,-5.1076,-5.1085,-5.1262,0,0,-5.1112,-5.1116,0,0,0,0,0,0,0,0,-5.0798,-5.0803,-5.1042,-5.1043,-5.1044,-5.1118,-5.1119,-5.112,-5.1004,-5.0999,-5.0994,-5.0989,-5.107,-5.1077,-5.1084,0,0,0,0,0,0,0,0,0,0,0,0,0,0,0,-5.1042,-5.1043,0,-5.1118,-5.1119,-5.112,-5.1003,-5.0999,-5.0995,-5.0991,-5.1072,-5.1078,-5.1084,0,0,0,0,0,0,0,0,0,0,0,0,0,0,0,0,0,0,0,0,0,0,0,0,0,0,0,0,0,0,0,0,0,0,0,0,0,0,0,0,0,0,0,0,0,0,0,0,0,0,0,0,0,0,0,0,0,0,0,0,0,0,0,0,0,0,0,0,0]}],[{"header":{"parameterUnit":"kt","parameterCategory":2,"dx":1,"dy":1,"la1":30.253999710083008,"la2":30.299108505249023,"lo1":-89.0895004272461,"lo2":-89.04439544677734,"nx":28,"ny":28,"refTime":"2022-10-09T21:00:00:Z","depth":0,"parameterNumber":2,"parameterNumberName":"V-component_of_WINDS"},"data":[-9.553,-9.5657,-9.5656,-9.5799,-9.5821,-9.5917,-9.595,-9.5992,-9.6024,-9.6135,-9.6198,-9.6205,-9.6233,-9.6304,-9.637,-9.637,-9.6399,-9.6447,-9.644,-9.6233,-9.6204,-9.6176,-9.6148,-9.6452,-9.6453,-9.6655,-9.6657,-9.6659,-9.538,-9.5405,-9.548,-9.5551,-9.5615,-9.5569,-9.5619,-9.5675,-9.5761,-9.58,-9.5861,-9.5957,-9.6031,-9.6042,-9.6112,-9.6167,-9.6148,-9.6187,-9.6183,-9.6188,-9.5966,-9.5937,-9.6201,-9.6201,-9.6201,-9.6201,-9.6201,-9.6201,-9.5107,-9.5183,-9.5226,-9.5307,-9.5341,-9.5388,-9.5458,-9.5467,-9.5538,-9.5613,-9.5593,-9.5688,-9.5724,-9.5804,-9.5829,-9.5901,-9.5857,-9.5897,-9.5907,-9.5918,-9.5932,-9.5644,-9.5912,-9.5911,-9.591,-9.5909,-9.5909,0,-9.4907,-9.4901,-9.4972,-9.5044,-9.5102,-9.5155,-9.5203,-9.5246,-9.5226,-9.5284,-9.5368,-9.5415,-9.5507,-9.5583,-9.5646,-9.5662,-9.5617,-9.5611,-9.5639,-9.5652,-9.5657,-9.5658,-9.5298,-9.5603,-9.5601,-9.5599,-9.5597,-9.5596,-9.4633,-9.4721,-9.4763,-9.4813,-9.4839,-9.4919,-9.4966,-9.4942,-9.4992,-9.5045,-9.5111,-9.5187,-9.5247,-9.5378,-9.5383,-9.5449,-9.5428,-9.5546,-9.5438,-9.5447,-9.5432,-9.5428,-9.5437,-9.5568,-9.5571,-9.5574,-9.5577,0,-9.4479,-9.4474,-9.4609,-9.464,-9.4651,-9.4743,-9.4768,-9.484,-9.4839,-9.4938,-9.496,-9.4957,-9.5038,-9.5023,-9.5111,-9.51,-9.5249,-9.5225,-9.5237,-9.5232,-9.5338,-9.5329,-9.5678,-9.5723,-9.5404,-9.5407,-9.541,0,-9.4244,-9.4359,-9.4346,-9.4424,-9.4551,-9.4524,-9.4649,-9.4661,-9.4692,-9.477,-9.4717,-9.479,-9.4759,-9.483,-9.4814,-9.4933,-9.4948,-9.4948,-9.4943,-9.4954,-9.4955,-9.498,-9.4966,-9.4925,-9.4923,-9.4922,-9.492,0,-9.4005,-9.4132,-9.4259,-9.4286,-9.433,-9.4389,-9.4409,-9.4444,-9.4489,-9.4544,-9.4573,-9.4637,-9.4673,-9.4723,-9.4704,-9.4631,-9.4847,-9.4743,-9.4847,-9.4848,-9.4896,-9.4894,-9.5206,-9.4918,-9.4918,-9.4917,-9.4916,0,-9.3815,-9.3875,-9.4059,-9.4095,-9.4129,-9.4211,-9.4275,-9.4342,-9.4382,-9.4378,-9.4421,-9.4383,-9.4485,-9.4383,-9.4522,-9.4433,-9.4471,-9.4479,-9.4486,-9.4496,-9.4383,-9.4563,-9.486,-9.4892,-9.4503,-9.4499,-9.4496,0,-9.3544,-9.3728,-9.3707,-9.3882,-9.3965,-9.3902,-9.3992,-9.4029,-9.4032,-9.41,-9.4101,-9.4179,-9.41,-9.4122,-9.4192,-9.4197,-9.4311,-9.418,-9.4278,-9.4281,-9.4272,-9.4545,-9.4594,-9.4797,-9.4452,-9.4456,-9.446,0,-9.3334,-9.3387,-9.342,-9.3451,-9.3497,-9.3565,-9.3668,-9.3741,-9.3788,-9.3834,-9.3919,-9.4026,-9.3971,-9.4008,-9.3983,-9.4057,-9.4233,-9.3988,-9.3988,-9.4034,-9.4427,-9.4474,-9.4508,-9.4199,-9.4205,-9.4209,-9.4424,0,-9.3051,-9.3141,-9.3229,-9.3297,-9.3348,-9.3455,-9.3443,-9.3496,-9.3469,-9.347,-9.3594,-9.3618,-9.3688,-9.3721,-9.3694,-9.3869,-9.3837,-9.3777,-9.3678,-9.3857,-9.3927,-9.3956,-9.3574,-9.3571,-9.3569,-9.3567,0,0,-9.2794,-9.2923,-9.2897,-9.2997,-9.3038,-9.2971,-9.3087,-9.3118,-9.3182,-9.3211,-9.3156,-9.3311,-9.3332,-9.3483,-9.3538,-9.3565,-9.3595,-9.3533,-9.3771,-9.3794,-9.3815,-9.3891,-9.3921,-9.3562,-9.3561,-9.356,-9.3559,0,-9.2689,-9.2717,-9.2833,-9.2865,-9.2912,-9.2907,-9.2935,-9.2968,-9.2973,-9.3094,-9.3035,-9.3106,-9.323,-9.3261,-9.3293,-9.3514,-9.3465,-9.3536,-9.3661,-9.3746,-9.3772,-9.3796,-9.3876,-9.3905,-9.3553,-9.3554,-9.3554,0,-9.248,-9.2507,-9.2561,-9.2652,-9.2681,-9.2766,-9.266,-9.2754,-9.2817,-9.2735,-9.2856,-9.2867,-9.2907,-9.3051,-9.3114,-9.3066,-9.3348,-9.3255,-9.327,-9.3277,-9.3358,-9.339,-9.3418,-9.3047,-9.3046,-9.3044,0,0,-9.2391,-9.2475,-9.2494,-9.2628,-9.2651,-9.2645,-9.2689,-9.2667,-9.2706,-9.2722,-9.2735,-9.2774,-9.2845,-9.2892,-9.2958,-9.3118,-9.3124,-9.3193,-9.3217,-9.3237,-9.3254,-9.3341,-9.3372,-9.3038,-9.3038,-9.3037,0,0,-9.2347,-9.2376,-9.2343,-9.2498,-9.2539,-9.2564,-9.2646,-9.2605,-9.2663,-9.2649,-9.2613,-9.2621,-9.2755,-9.2768,-9.2685,-9.2922,-9.2824,-9.2844,-9.291,-9.294,-9.2963,-9.2958,-9.2577,0,0,0,0,0,-9.2234,-9.2373,-9.2343,-9.2367,-9.2479,-9.2582,-9.2595,-9.2571,-9.2503,-9.2568,-9.2573,-9.2516,-9.2716,-9.2642,-9.2664,-9.2758,-9.2956,-9.297,-9.2984,-9.3107,-9.3138,-9.3165,0,0,0,0,0,0,-9.2243,-9.2273,-9.2339,-9.2371,-9.2396,-9.2576,-9.2456,-9.2453,-9.2495,-9.2483,-9.2517,-9.2517,-9.2496,-9.2628,-9.2649,-9.2738,-9.257,-9.2962,-9.2974,-9.2985,-9.3117,-9.3143,-9.3165,0,0,0,0,0,-9.225,-9.2274,-9.2462,-9.2369,-9.2391,-9.2391,-9.245,-9.2447,-9.2479,-9.2486,-9.2484,-9.2457,-9.2499,-9.2515,-9.264,-9.2729,-9.2556,-9.2564,-9.297,-9.2979,-9.2988,-9.313,0,0,0,0,0,0,-9.2256,-9.227,-9.2465,-9.2471,-9.2315,-9.2381,-9.239,-9.2442,-9.2478,-9.2479,-9.2423,-9.2413,-9.2504,-9.2515,-9.2527,-9.2728,-9.2544,-9.2552,-9.2557,-9.2977,-9.2985,-9.2991,0,0,0,0,0,0,-9.2257,-9.2276,-9.2468,-9.2401,-9.2399,-9.2371,-9.238,-9.2481,-9.248,-9.2413,-9.2406,-9.2418,-9.2483,-9.2516,-9.2525,-9.2684,-9.2534,-9.2542,-9.2548,-9.2551,-9.2983,-9.2989,0,0,0,0,0,0,-9.2265,-9.228,-9.24,-9.2398,-9.2396,-9.2456,-9.246,-9.2575,-9.2426,-9.2412,-9.2411,-9.2405,-9.2486,-9.2494,-9.2524,-9.268,-9.2683,-9.2535,-9.254,-9.2544,-9.2546,0,0,0,0,0,0,0,-9.227,-9.2172,-9.2433,-9.2395,-9.2393,-9.2522,-9.2524,-9.2525,-9.2424,-9.2419,-9.2413,-9.2407,-9.249,-9.2499,-9.2507,-9.2676,0,0,-9.2534,-9.2538,0,0,0,0,0,0,0,0,-9.2165,-9.217,-9.2433,-9.2434,-9.2435,-9.2523,-9.2524,-9.2525,-9.2423,-9.2419,-9.2414,-9.241,-9.2493,-9.25,-9.2507,0,0,0,0,0,0,0,0,0,0,0,0,0,0,0,-9.2433,-9.2434,0,-9.2523,-9.2524,-9.2525,-9.2423,-9.2419,-9.2415,-9.2411,-9.2495,-9.25,-9.2506,0,0,0,0,0,0,0,0,0,0,0,0,0,0,0,0,0,0,0,0,0,0,0,0,0,0,0,0,0,0,0,0,0,0,0,0,0,0,0,0,0,0,0,0,0,0,0,0,0,0,0,0,0,0,0,0,0,0,0,0,0,0,0,0,0,0,0,0,0]}]]]